Terug naar catalogus

LEMUR 2 KRISH

ActiefWetenschapSSO
NORAD 64561·PAYLOAD·🇺🇸 United States

Gelanceerd Jun 23, 2025 vanaf Vandenberg Space Force Base

Loading…

Volgende Passages (komende 24 uur)

TLE

VersSource: Space-Track

Epoch: Sep 14, 2026, 01:35 UTC

1 64561U 25135AK  26257.06632154  .00004550  00000-0  40144-3 0  9997
2 64561  97.7819  11.4057 0001700 103.2125 256.9286 14.96898058 67217

Volg LEMUR 2 KRISH in realtime met AllMySat

Download on the App Store